[[{"header":{"parameterUnit":"m.s-1","parameterCategory":2,"la1":30.2991,"la2":30.254,"lo1":-89.0895,"lo2":-89.0444,"dy":0.0017,"dx":0.0017,"nx":28,"ny":28,"refTime":"2024-06-05T09:00:00:Z","depth":"0","parameterNumber":2,"parameterNumberName":"U-component_of_CURRENTS"},"data":[0,0,0,0,0,0,0,0,0,0,0,0,0,0,0,0,0,0,0,0,0,0,0,0,0,0,0,0,0,0,0,0,0,0,0,0,0,0,0,0,0,0,0,0,0,0,0,0,0,0,0,0,0,0,0,0,0,0,-0.2067,-0.2067,0,-0.2091,-0.2091,-0.2091,-0.2062,-0.2061,-0.206,-0.206,-0.2032,-0.2032,-0.2032,0,0,0,0,0,0,0,0,0,0,0,0,0,-0.2017,-0.2017,-0.2067,-0.2067,-0.2068,-0.2091,-0.2091,-0.2091,-0.2062,-0.2061,-0.206,-0.2059,-0.2032,-0.2032,-0.2032,0,0,0,0,0,0,0,0,0,0,0,0,0,-0.2038,-0.2018,-0.2067,-0.2058,-0.2057,-0.2091,-0.2091,-0.2091,-0.2063,-0.2061,-0.206,-0.2059,-0.2032,-0.2032,-0.2032,-0.206,0,0,-0.2033,-0.2033,0,0,0,0,0,0,0,0,-0.2036,-0.2039,-0.2058,-0.2058,-0.2058,-0.2074,-0.2063,-0.2079,-0.2063,-0.2059,-0.206,-0.2058,-0.2043,-0.2042,-0.2048,-0.2059,-0.2058,-0.2033,-0.2033,-0.2033,-0.2033,0,0,0,0,0,0,0,-0.2035,-0.2038,-0.2075,-0.2059,-0.2059,-0.2059,-0.206,-0.2066,-0.2056,-0.2059,-0.2057,-0.2063,-0.2042,-0.2048,-0.2047,-0.2058,-0.2033,-0.2033,-0.2033,-0.2033,-0.2065,-0.2066,0,0,0,0,0,0,-0.2036,-0.2037,-0.2074,-0.2075,-0.2045,-0.2061,-0.2062,-0.2069,-0.2057,-0.2055,-0.2064,-0.2062,-0.2049,-0.2047,-0.2046,-0.2063,-0.2033,-0.2033,-0.2033,-0.2064,-0.2065,-0.2066,0,0,0,0,0,0,-0.2035,-0.2039,-0.2073,-0.2058,-0.2062,-0.2064,-0.2071,-0.207,-0.2069,-0.2062,-0.2058,-0.2064,-0.2047,-0.2046,-0.2051,-0.2062,-0.2033,-0.2033,-0.2063,-0.2065,-0.2066,-0.2107,0,0,0,0,0,0,-0.2033,-0.2039,-0.2041,-0.2058,-0.2063,-0.2095,-0.2072,-0.2071,-0.2076,-0.2073,-0.2061,-0.2057,-0.2046,-0.2051,-0.2052,-0.2062,-0.2033,-0.2062,-0.2064,-0.2065,-0.2105,-0.211,-0.2114,0,0,0,0,0,-0.2032,-0.2041,-0.2041,-0.2045,-0.2067,-0.2097,-0.2099,-0.2094,-0.2077,-0.2086,-0.2075,-0.2057,-0.206,-0.2053,-0.2052,-0.2063,-0.2062,-0.2064,-0.2065,-0.2103,-0.2109,-0.2114,0,0,0,0,0,0,-0.2015,-0.204,-0.204,-0.2054,-0.2076,-0.2092,-0.2097,-0.2097,-0.2097,-0.2087,-0.2072,-0.2069,-0.2078,-0.2068,-0.206,-0.2076,-0.2056,-0.2058,-0.2085,-0.209,-0.2095,-0.2085,-0.2034,0,0,0,0,0,-0.2016,-0.2028,-0.2055,-0.2064,-0.2075,-0.2086,-0.2095,-0.2098,-0.2103,-0.2101,-0.2095,-0.2087,-0.2089,-0.2086,-0.2088,-0.21,-0.2069,-0.2105,-0.211,-0.2113,-0.2106,-0.2081,-0.2082,-0.2072,-0.2072,-0.2072,0,0,-0.201,-0.2026,-0.2031,-0.2062,-0.2072,-0.21,-0.2087,-0.2105,-0.2122,-0.2099,-0.211,-0.2105,-0.2097,-0.211,-0.2112,-0.2099,-0.2099,-0.2115,-0.2119,-0.2109,-0.2082,-0.2083,-0.2084,-0.2073,-0.2073,-0.2072,0,0,-0.2013,-0.2021,-0.2037,-0.2063,-0.209,-0.2103,-0.211,-0.2133,-0.2133,-0.2154,-0.2138,-0.2137,-0.2145,-0.2138,-0.2136,-0.2166,-0.2127,-0.2169,-0.218,-0.2157,-0.2157,-0.2156,-0.2111,-0.2106,-0.2167,-0.2167,-0.2167,0,-0.2004,-0.2031,-0.2046,-0.2077,-0.2095,-0.2106,-0.2134,-0.2147,-0.2168,-0.2168,-0.216,-0.2161,-0.2157,-0.2161,-0.2173,-0.2174,-0.2147,-0.2162,-0.2161,-0.216,-0.2159,-0.2113,-0.2107,-0.217,-0.2169,-0.2169,-0.2169,0,-0.203,-0.2053,-0.2065,-0.2106,-0.2129,-0.2154,-0.2182,-0.2196,-0.2196,-0.2205,-0.2209,-0.2202,-0.2194,-0.2201,-0.2198,-0.2194,-0.2172,-0.2173,-0.2145,-0.2163,-0.2112,-0.2106,-0.2173,-0.2172,-0.2171,-0.2171,0,0,-0.1994,-0.207,-0.207,-0.2093,-0.2147,-0.2164,-0.2198,-0.2225,-0.2229,-0.2242,-0.2238,-0.2249,-0.2232,-0.2227,-0.2219,-0.2202,-0.2177,-0.2188,-0.2185,-0.2137,-0.2106,-0.202,-0.2004,-0.2179,-0.2178,-0.2178,-0.207,0,-0.2004,-0.2061,-0.2099,-0.2142,-0.217,-0.2201,-0.223,-0.2254,-0.2261,-0.2263,-0.225,-0.2248,-0.2246,-0.2237,-0.2223,-0.2197,-0.2162,-0.2204,-0.21,-0.2096,-0.2014,-0.1995,-0.1918,-0.181,-0.2063,-0.2062,-0.2061,0,-0.2008,-0.2048,-0.2096,-0.2157,-0.217,-0.2196,-0.2223,-0.2253,-0.2267,-0.2273,-0.2265,-0.2256,-0.224,-0.223,-0.2173,-0.2201,-0.2151,-0.2121,-0.2117,-0.2015,-0.1998,-0.1836,-0.1788,-0.1773,-0.2051,-0.2052,-0.2052,0,-0.1959,-0.2036,-0.2069,-0.2094,-0.2169,-0.2182,-0.221,-0.2241,-0.2259,-0.2265,-0.2264,-0.2251,-0.2225,-0.2186,-0.2127,-0.2152,-0.2042,-0.2067,-0.1933,-0.1926,-0.1826,-0.1811,-0.1744,-0.2001,-0.2001,-0.2001,-0.2002,0,-0.1946,-0.1968,-0.2045,-0.2062,-0.2091,-0.2148,-0.2169,-0.2197,-0.2227,-0.2233,-0.2251,-0.2228,-0.2214,-0.2155,-0.2111,-0.1985,-0.2021,-0.1915,-0.1888,-0.1837,-0.1825,-0.1779,-0.1806,-0.1997,-0.1998,-0.1999,-0.2,0,-0.1881,-0.1939,-0.1978,-0.2051,-0.2069,-0.208,-0.2146,-0.2163,-0.2197,-0.2197,-0.2199,-0.2201,-0.2122,-0.2076,-0.1992,-0.1941,-0.1807,-0.1788,-0.1715,-0.1682,-0.1558,-0.159,-0.1495,-0.1454,-0.1634,-0.1631,-0.1629,0,-0.1853,-0.1868,-0.1945,-0.196,-0.1988,-0.2024,-0.2055,-0.2129,-0.2151,-0.2164,-0.2154,-0.2093,-0.2008,-0.1851,-0.1757,-0.163,-0.1664,-0.1503,-0.1538,-0.1517,-0.1535,-0.1584,-0.1562,-0.1422,-0.1418,-0.1415,-0.1412,0,-0.1783,-0.1811,-0.1838,-0.188,-0.1911,-0.1954,-0.1998,-0.2008,-0.2078,-0.2058,-0.1991,-0.1915,-0.1786,-0.1612,-0.1476,-0.1413,-0.1477,-0.1432,-0.1434,-0.137,-0.1395,-0.1354,-0.1524,-0.1384,-0.1387,-0.1389,-0.139,-0.1392,-0.1707,-0.171,-0.1744,-0.177,-0.1813,-0.1829,-0.1787,-0.1838,-0.1812,-0.1713,-0.1779,-0.1581,-0.1517,-0.1299,-0.124,-0.1138,-0.1225,-0.1127,-0.1167,-0.1219,-0.118,-0.1271,-0.1092,-0.1093,-0.1094,-0.1095,-0.1096,0,-0.1599,-0.1611,-0.1633,-0.1652,-0.1641,-0.1703,-0.1704,-0.1609,-0.1492,-0.1443,-0.1337,-0.117,-0.1057,-0.1014,-0.0943,-0.0895,-0.0918,-0.0906,-0.0977,-0.0967,-0.1048,-0.104,-0.0811,-0.0811,-0.0811,-0.0811,-0.0812,-0.0812,-0.1536,-0.1512,-0.1528,-0.1459,-0.1461,-0.1346,-0.1287,-0.1177,-0.1078,-0.0837,-0.0692,-0.0616,-0.0679,-0.0835,-0.0826,-0.0805,-0.0828,-0.0806,-0.0845,-0.0932,-0.0958,-0.0983,-0.098,-0.0743,-0.0743,-0.0733,-0.0733,-0.0733]},{"header":{"parameterUnit":"m.s-1","parameterCategory":2,"la1":30.2991,"la2":30.254,"lo1":-89.0895,"lo2":-89.0444,"dy":0.0017,"dx":0.0017,"nx":28,"ny":28,"refTime":"2024-06-05T09:00:00:Z","depth":"0","parameterNumber":3,"parameterNumberName":"V-component_of_CURRENTS"},"data":[0,0,0,0,0,0,0,0,0,0,0,0,0,0,0,0,0,0,0,0,0,0,0,0,0,0,0,0,0,0,0,0,0,0,0,0,0,0,0,0,0,0,0,0,0,0,0,0,0,0,0,0,0,0,0,0,0,0,-0.0134,-0.0133,0,-0.0069,-0.0068,-0.0067,-0.0014,-0.0013,-0.0013,-0.0013,0.0101,0.0104,0.0106,0,0,0,0,0,0,0,0,0,0,0,0,0,-0.0169,-0.0168,-0.0134,-0.0133,-0.0133,-0.0069,-0.0068,-0.0067,-0.0014,-0.0013,-0.0013,-0.0012,0.01,0.0103,0.0107,0,0,0,0,0,0,0,0,0,0,0,0,0,-0.0133,-0.0168,-0.0134,-0.0099,-0.0096,-0.0069,-0.0068,-0.0067,-0.0014,-0.0013,-0.0013,-0.0012,0.0099,0.0103,0.0107,0.0117,0,0,0.0119,0.0121,0,0,0,0,0,0,0,0,-0.0135,-0.0131,-0.0105,-0.0102,-0.0097,-0.005,-0.0038,-0.0003,-0.0014,-0.0044,-0.0013,-0.0012,0.0054,0.0062,0.0073,0.0123,0.0128,0.0119,0.0122,0.0123,0.0124,0,0,0,0,0,0,0,-0.0137,-0.0134,-0.0107,-0.0104,-0.01,-0.0072,-0.0066,-0.0031,0.0002,-0.0041,-0.0037,-0.0032,0.0057,0.0069,0.0076,0.0129,0.0119,0.0123,0.0125,0.0127,0.0219,0.0219,0,0,0,0,0,0,-0.0151,-0.0136,-0.0109,-0.0105,-0.0116,-0.0072,-0.0066,-0.0065,0.0001,0.0011,-0.0033,-0.003,0.0062,0.0072,0.0081,0.0112,0.0123,0.0127,0.0129,0.0219,0.0219,0.022,0,0,0,0,0,0,-0.0152,-0.0149,-0.0112,-0.012,-0.0113,-0.0073,-0.0072,-0.0064,-0.005,0.0007,0.0018,-0.0027,0.0063,0.0075,0.0113,0.0116,0.0129,0.0132,0.0219,0.0219,0.0219,0.0165,0,0,0,0,0,0,-0.0153,-0.015,-0.0156,-0.0121,-0.0113,-0.0102,-0.0072,-0.0063,-0.0049,-0.0044,0.0015,0.0026,0.0065,0.0106,0.0116,0.0122,0.0135,0.0219,0.0219,0.0219,0.0166,0.0163,0.016,0,0,0,0,0,-0.0155,-0.0169,-0.0157,-0.0153,-0.0122,-0.0103,-0.0096,-0.0064,-0.0049,-0.0048,-0.0005,0.0025,0.0115,0.0109,0.0121,0.0128,0.0219,0.0219,0.0219,0.0168,0.0164,0.016,0,0,0,0,0,0,-0.0187,-0.0164,-0.015,-0.0156,-0.0133,-0.0094,-0.0093,-0.007,-0.0036,-0.0031,0.0024,0.0039,0.0072,0.0106,0.0098,0.0156,0.0173,0.0175,0.0129,0.0126,0.0123,0.0112,0.0139,0,0,0,0,0,-0.0198,-0.0202,-0.0171,-0.0176,-0.0168,-0.0132,-0.0121,-0.0099,-0.0065,-0.0049,-0.0007,0.004,0.0081,0.0107,0.0145,0.0175,0.0216,0.0188,0.0185,0.0182,0.0182,0.0245,0.0248,0.022,0.022,0.022,0,0,-0.0212,-0.02,-0.0202,-0.0183,-0.0164,-0.0158,-0.0123,-0.0113,-0.01,-0.0042,-0.0016,0.0026,0.0085,0.012,0.0139,0.015,0.0211,0.0183,0.018,0.0181,0.0246,0.0248,0.0251,0.0221,0.0221,0.0221,0,0,-0.0248,-0.0233,-0.0249,-0.0232,-0.021,-0.0183,-0.0183,-0.0147,-0.0124,-0.0096,-0.0048,-0.0004,0.0052,0.0102,0.0134,0.0137,0.0187,0.0147,0.0129,0.019,0.0193,0.0196,0.0246,0.0254,0.0151,0.0151,0.0151,0,-0.0267,-0.0279,-0.025,-0.0257,-0.0245,-0.0199,-0.0205,-0.0176,-0.0131,-0.0107,-0.0096,0.0002,0.0047,0.0108,0.0108,0.013,0.0168,0.0136,0.0186,0.019,0.0194,0.0244,0.0254,0.0148,0.0148,0.0149,0.0149,0,-0.0309,-0.0316,-0.0324,-0.0314,-0.0296,-0.0296,-0.025,-0.0228,-0.0195,-0.0157,-0.0101,-0.0036,0.0027,0.0048,0.0079,0.0132,0.015,0.0169,0.0192,0.0193,0.0246,0.0257,0.0144,0.0145,0.0146,0.0147,0,0,-0.0359,-0.0356,-0.0358,-0.0361,-0.0326,-0.0316,-0.0291,-0.0251,-0.0226,-0.0176,-0.0136,-0.0063,-0.0021,0.0017,0.0069,0.0122,0.0178,0.015,0.0155,0.0194,0.0307,0.0352,0.0368,0.0205,0.0207,0.0208,0.0331,0,-0.0402,-0.0435,-0.041,-0.0423,-0.0433,-0.0375,-0.0354,-0.0305,-0.0252,-0.0201,-0.0121,-0.0067,-0.0033,0.0,0.0057,0.0152,0.0205,0.0143,0.0306,0.0311,0.0346,0.0382,0.0438,0.0555,0.0342,0.0344,0.0345,0,-0.045,-0.0465,-0.0495,-0.0477,-0.0473,-0.0467,-0.0411,-0.0384,-0.0294,-0.025,-0.0176,-0.0108,-0.0015,0.0006,0.0167,0.0125,0.0206,0.0275,0.0282,0.0351,0.0376,0.0523,0.0584,0.0698,0.0362,0.0361,0.0359,0,-0.0506,-0.0517,-0.0544,-0.054,-0.0514,-0.0506,-0.0481,-0.0404,-0.0369,-0.0276,-0.0233,-0.0119,-0.0045,0.0063,0.021,0.0191,0.0387,0.0383,0.0499,0.0503,0.0598,0.0608,0.0787,0.049,0.049,0.049,0.0489,0,-0.0561,-0.0579,-0.0576,-0.0593,-0.0609,-0.0562,-0.0549,-0.0503,-0.0421,-0.0356,-0.0264,-0.0178,-0.0027,0.0108,0.0215,0.0404,0.0399,0.0509,0.0546,0.058,0.0586,0.0727,0.0751,0.0494,0.0493,0.0492,0.0491,0,-0.062,-0.0619,-0.0652,-0.0645,-0.0643,-0.0654,-0.0609,-0.0586,-0.0501,-0.041,-0.0379,-0.0209,-0.002,0.0135,0.0339,0.0429,0.067,0.0649,0.0673,0.0711,0.0905,0.0922,0.1101,0.1189,0.0793,0.0795,0.0796,0,-0.0654,-0.0682,-0.0705,-0.0729,-0.0732,-0.0733,-0.0726,-0.0646,-0.0594,-0.0408,-0.0356,-0.016,0.0021,0.0323,0.0511,0.0718,0.0785,0.0874,0.0847,0.0942,0.0989,0.0972,0.1032,0.0952,0.0955,0.0957,0.0959,0,-0.0718,-0.0728,-0.0755,-0.0809,-0.0823,-0.0818,-0.0784,-0.0734,-0.0593,-0.0468,-0.0251,-0.0093,0.0195,0.0492,0.0737,0.0841,0.0964,0.0926,0.1038,0.1143,0.1127,0.1222,0.0828,0.0979,0.0977,0.0976,0.0974,0.0974,-0.0758,-0.0798,-0.0835,-0.0875,-0.0892,-0.0855,-0.0779,-0.068,-0.0529,-0.0225,-0.0152,0.0181,0.0483,0.0851,0.0964,0.1211,0.1142,0.1291,0.1308,0.1284,0.1363,0.1004,0.1184,0.1183,0.1182,0.1181,0.1181,0,-0.0802,-0.0837,-0.0893,-0.0913,-0.091,-0.0899,-0.0774,-0.0619,-0.0355,-0.0095,0.0164,0.0604,0.0939,0.1185,0.1494,0.1609,0.1598,0.1652,0.1657,0.1705,0.1421,0.1422,0.1647,0.1647,0.1647,0.1647,0.1647,0.1647,-0.0825,-0.0884,-0.0907,-0.0906,-0.0894,-0.0766,-0.0641,-0.0398,-0.0154,0.0322,0.0668,0.0917,0.1226,0.1632,0.1927,0.1936,0.2036,0.1992,0.2052,0.1862,0.1829,0.1798,0.1809,0.2111,0.2112,0.2347,0.235,0.2352]}],[{"header":{"parameterUnit":"m.s-1","parameterCategory":2,"la1":30.2991,"la2":30.254,"lo1":-89.0895,"lo2":-89.0444,"dy":0.0017,"dx":0.0017,"nx":28,"ny":28,"refTime":"2024-06-05T09:00:00:Z","depth":"2","parameterNumber":2,"parameterNumberName":"U-component_of_CURRENTS"},"data":[0,0,0,0,0,0,0,0,0,0,0,0,0,0,0,0,0,0,0,0,0,0,0,0,0,0,0,0,0,0,0,0,0,0,0,0,0,0,0,0,0,0,0,0,0,0,0,0,0,0,0,0,0,0,0,0,0,0,-0.2016,-0.2016,0,-0.2039,-0.2039,-0.2039,-0.2013,-0.2013,-0.2012,-0.2011,-0.1985,-0.1985,-0.1985,0,0,0,0,0,0,0,0,0,0,0,0,0,-0.1964,-0.1965,-0.2015,-0.2016,-0.2016,-0.2039,-0.2039,-0.2039,-0.2014,-0.2013,-0.2012,-0.2011,-0.1985,-0.1985,-0.1985,0,0,0,0,0,0,0,0,0,0,0,0,0,-0.1985,-0.1965,-0.2015,-0.2008,-0.2007,-0.2039,-0.2039,-0.2039,-0.2014,-0.2012,-0.2011,-0.201,-0.1985,-0.1985,-0.1985,-0.201,0,0,-0.1985,-0.1985,0,0,0,0,0,0,0,0,-0.1984,-0.1987,-0.2008,-0.2008,-0.2008,-0.2023,-0.2012,-0.2028,-0.2014,-0.2009,-0.2011,-0.2009,-0.1995,-0.1994,-0.2,-0.2009,-0.2008,-0.1985,-0.1985,-0.1985,-0.1985,0,0,0,0,0,0,0,-0.1983,-0.1986,-0.2023,-0.2009,-0.2009,-0.2008,-0.201,-0.2015,-0.2007,-0.201,-0.2008,-0.2014,-0.1994,-0.2,-0.1999,-0.2008,-0.1985,-0.1985,-0.1985,-0.1985,-0.2015,-0.2016,0,0,0,0,0,0,-0.1984,-0.1985,-0.2022,-0.2024,-0.1995,-0.201,-0.2012,-0.2018,-0.2008,-0.2006,-0.2015,-0.2013,-0.2,-0.1999,-0.1998,-0.2016,-0.1985,-0.1985,-0.1986,-0.2014,-0.2015,-0.2016,0,0,0,0,0,0,-0.1983,-0.1987,-0.2021,-0.2006,-0.201,-0.2013,-0.202,-0.2019,-0.202,-0.2013,-0.2009,-0.2016,-0.1999,-0.1998,-0.2003,-0.2015,-0.1986,-0.1986,-0.2014,-0.2015,-0.2016,-0.2059,0,0,0,0,0,0,-0.1981,-0.1987,-0.199,-0.2006,-0.2011,-0.2043,-0.2022,-0.2021,-0.2027,-0.2024,-0.2013,-0.2009,-0.1998,-0.2003,-0.2003,-0.2014,-0.1986,-0.2013,-0.2014,-0.2015,-0.2056,-0.2061,-0.2065,0,0,0,0,0,-0.1979,-0.199,-0.199,-0.1995,-0.2017,-0.2044,-0.2047,-0.2043,-0.2028,-0.2037,-0.2027,-0.2009,-0.2011,-0.2004,-0.2004,-0.2015,-0.2012,-0.2014,-0.2015,-0.2054,-0.206,-0.2065,0,0,0,0,0,0,-0.1965,-0.1989,-0.1989,-0.2005,-0.2025,-0.2041,-0.2046,-0.2047,-0.2047,-0.2038,-0.2023,-0.2021,-0.203,-0.2019,-0.2012,-0.2027,-0.2007,-0.2009,-0.2037,-0.2042,-0.2047,-0.2038,-0.1986,0,0,0,0,0,-0.1966,-0.1979,-0.2004,-0.2015,-0.2025,-0.2036,-0.2045,-0.2048,-0.2053,-0.2051,-0.2046,-0.2038,-0.204,-0.2037,-0.2038,-0.205,-0.202,-0.2055,-0.206,-0.2064,-0.2057,-0.2033,-0.2034,-0.2021,-0.2021,-0.2021,0,0,-0.1961,-0.1977,-0.1982,-0.2013,-0.2023,-0.2049,-0.2037,-0.2055,-0.2072,-0.2049,-0.2061,-0.2057,-0.2048,-0.2061,-0.2063,-0.205,-0.205,-0.2066,-0.2069,-0.2059,-0.2034,-0.2035,-0.2036,-0.2022,-0.2022,-0.2022,0,0,-0.1966,-0.1974,-0.199,-0.2014,-0.2041,-0.2054,-0.2061,-0.2083,-0.2084,-0.2105,-0.209,-0.2089,-0.2097,-0.2089,-0.2087,-0.2116,-0.2078,-0.2119,-0.2131,-0.2109,-0.2109,-0.2109,-0.2066,-0.2061,-0.2118,-0.2118,-0.2118,0,-0.1957,-0.1984,-0.1999,-0.2028,-0.2046,-0.2057,-0.2084,-0.2097,-0.2117,-0.2118,-0.2111,-0.2112,-0.2108,-0.2111,-0.2124,-0.2125,-0.2099,-0.2113,-0.2113,-0.2113,-0.2112,-0.2067,-0.2062,-0.212,-0.212,-0.2119,-0.2119,0,-0.1983,-0.2005,-0.2018,-0.2056,-0.2079,-0.2103,-0.213,-0.2144,-0.2146,-0.2155,-0.216,-0.2153,-0.2146,-0.2152,-0.2149,-0.2147,-0.2125,-0.2125,-0.2098,-0.2116,-0.2068,-0.2061,-0.2123,-0.2122,-0.2122,-0.2121,0,0,-0.1951,-0.2022,-0.2023,-0.2045,-0.2096,-0.2113,-0.2146,-0.2172,-0.2177,-0.2191,-0.2189,-0.22,-0.2185,-0.218,-0.2171,-0.2156,-0.2133,-0.2142,-0.2139,-0.2094,-0.2066,-0.1983,-0.1967,-0.2135,-0.2135,-0.2134,-0.2032,0,-0.196,-0.2014,-0.205,-0.2091,-0.2118,-0.2148,-0.2177,-0.22,-0.2208,-0.2212,-0.22,-0.22,-0.2199,-0.2191,-0.2178,-0.2152,-0.212,-0.2159,-0.2058,-0.2055,-0.1976,-0.1959,-0.1835,-0.1728,-0.2025,-0.2024,-0.2023,0,-0.1964,-0.2002,-0.2048,-0.2105,-0.2118,-0.2144,-0.2171,-0.22,-0.2216,-0.2223,-0.2217,-0.2209,-0.2195,-0.2186,-0.2132,-0.2158,-0.2111,-0.2082,-0.2077,-0.1977,-0.1959,-0.176,-0.1705,-0.2012,-0.2013,-0.2014,-0.2015,0,-0.1918,-0.1991,-0.2022,-0.2046,-0.2118,-0.2131,-0.2159,-0.219,-0.2207,-0.2216,-0.2216,-0.2205,-0.2183,-0.2145,-0.2088,-0.2112,-0.2007,-0.2031,-0.1901,-0.1894,-0.1755,-0.1736,-0.1968,-0.1968,-0.1968,-0.1968,-0.1969,0,-0.1905,-0.1926,-0.2,-0.2016,-0.2044,-0.2099,-0.212,-0.2148,-0.2179,-0.2185,-0.2205,-0.2184,-0.2172,-0.2116,-0.2073,-0.1953,-0.1988,-0.1884,-0.1858,-0.1766,-0.175,-0.1976,-0.1979,-0.1964,-0.1965,-0.1966,-0.1967,0,-0.1843,-0.1898,-0.1935,-0.2005,-0.2023,-0.2035,-0.2099,-0.2115,-0.2151,-0.2152,-0.2155,-0.2159,-0.2084,-0.204,-0.1959,-0.191,-0.1822,-0.1763,-0.1643,-0.1605,-0.173,-0.1736,-0.1621,-0.1617,-0.1614,-0.1611,-0.1609,0,-0.1816,-0.1831,-0.1904,-0.1918,-0.1946,-0.1981,-0.2011,-0.2083,-0.2104,-0.2121,-0.2111,-0.2054,-0.1973,-0.1821,-0.1723,-0.1599,-0.1689,-0.1436,-0.1463,-0.1706,-0.1693,-0.1704,-0.1714,-0.1293,-0.1288,-0.1284,-0.1281,0,-0.1749,-0.1776,-0.1801,-0.184,-0.187,-0.1911,-0.1954,-0.1963,-0.2032,-0.2019,-0.1959,-0.1887,-0.1751,-0.1555,-0.1418,-0.1352,-0.1457,-0.1353,-0.1617,-0.1408,-0.139,-0.138,-0.1402,-0.1247,-0.125,-0.1253,-0.1255,-0.1256,-0.1677,-0.1678,-0.171,-0.1734,-0.1775,-0.179,-0.1749,-0.1802,-0.1782,-0.1706,-0.1756,-0.1577,-0.1535,-0.1223,-0.1134,-0.1071,-0.118,-0.1152,-0.1166,-0.1184,-0.1173,-0.1151,-0.0959,-0.0961,-0.0962,-0.0964,-0.0965,0,-0.157,-0.1582,-0.1601,-0.1618,-0.1607,-0.1668,-0.1667,-0.1585,-0.1484,-0.1465,-0.137,-0.1153,-0.1012,-0.0968,-0.0799,-0.0773,-0.0799,-0.0765,-0.0806,-0.0839,-0.0869,-0.0846,-0.0543,-0.0542,-0.0541,-0.054,0,0,-0.1508,-0.1479,-0.1493,-0.1427,-0.1432,-0.1321,-0.1264,-0.118,-0.1106,-0.0948,-0.085,-0.0898,-0.0894,-0.0697,-0.0671,-0.0566,-0.0696,-0.0539,-0.0875,-0.0953,-0.0981,-0.1085,-0.1084,0,0,0,0,0]},{"header":{"parameterUnit":"m.s-1","parameterCategory":2,"la1":30.2991,"la2":30.254,"lo1":-89.0895,"lo2":-89.0444,"dy":0.0017,"dx":0.0017,"nx":28,"ny":28,"refTime":"2024-06-05T09:00:00:Z","depth":"2","parameterNumber":3,"parameterNumberName":"V-component_of_CURRENTS"},"data":[0,0,0,0,0,0,0,0,0,0,0,0,0,0,0,0,0,0,0,0,0,0,0,0,0,0,0,0,0,0,0,0,0,0,0,0,0,0,0,0,0,0,0,0,0,0,0,0,0,0,0,0,0,0,0,0,0,0,-0.0209,-0.0209,0,-0.0146,-0.0145,-0.0144,-0.0092,-0.0092,-0.0091,-0.0091,0.0018,0.0021,0.0023,0,0,0,0,0,0,0,0,0,0,0,0,0,-0.0248,-0.0248,-0.021,-0.0209,-0.0208,-0.0146,-0.0145,-0.0144,-0.0092,-0.0092,-0.0091,-0.0091,0.0017,0.002,0.0023,0,0,0,0,0,0,0,0,0,0,0,0,0,-0.0212,-0.0248,-0.021,-0.0175,-0.0172,-0.0146,-0.0145,-0.0144,-0.0092,-0.0092,-0.0091,-0.009,0.0016,0.002,0.0024,0.0033,0,0,0.0035,0.0037,0,0,0,0,0,0,0,0,-0.0214,-0.021,-0.0181,-0.0178,-0.0174,-0.0127,-0.0119,-0.0083,-0.0093,-0.0122,-0.0091,-0.009,-0.0027,-0.002,-0.0009,0.0038,0.0043,0.0035,0.0038,0.0039,0.004,0,0,0,0,0,0,0,-0.0217,-0.0213,-0.0183,-0.0181,-0.0176,-0.015,-0.0145,-0.0111,-0.0077,-0.0119,-0.0115,-0.011,-0.0025,-0.0013,-0.0006,0.0044,0.0035,0.0039,0.0041,0.0042,0.0131,0.0131,0,0,0,0,0,0,-0.0229,-0.0215,-0.0185,-0.0181,-0.0194,-0.015,-0.0144,-0.0142,-0.0079,-0.0069,-0.0111,-0.0108,-0.0019,-0.001,-0.0002,0.0029,0.0039,0.0043,0.0045,0.0131,0.0131,0.0131,0,0,0,0,0,0,-0.023,-0.0227,-0.0188,-0.0197,-0.0191,-0.0151,-0.0149,-0.0141,-0.0127,-0.0073,-0.0062,-0.0104,-0.0018,-0.0007,0.0029,0.0033,0.0044,0.0048,0.013,0.0131,0.0131,0.0079,0,0,0,0,0,0,-0.0232,-0.0228,-0.0233,-0.0199,-0.0191,-0.0178,-0.0149,-0.014,-0.0125,-0.0121,-0.0064,-0.0053,-0.0017,0.0023,0.0033,0.0038,0.0051,0.013,0.0131,0.0131,0.0081,0.0078,0.0075,0,0,0,0,0,-0.0234,-0.0245,-0.0233,-0.023,-0.0198,-0.0179,-0.0172,-0.0141,-0.0126,-0.0125,-0.0083,-0.0055,0.0031,0.0026,0.0037,0.0044,0.013,0.013,0.0131,0.0082,0.0078,0.0075,0,0,0,0,0,0,-0.0265,-0.024,-0.0226,-0.023,-0.0208,-0.017,-0.0169,-0.0146,-0.0114,-0.0108,-0.0055,-0.0042,-0.001,0.0023,0.0015,0.007,0.0086,0.0089,0.0045,0.0042,0.0039,0.0028,0.0054,0,0,0,0,0,-0.0275,-0.0277,-0.0246,-0.025,-0.0242,-0.0206,-0.0195,-0.0174,-0.0141,-0.0126,-0.0086,-0.0041,-0.0001,0.0024,0.0059,0.0089,0.0127,0.0102,0.0099,0.0096,0.0095,0.0156,0.0158,0.0132,0.0132,0.0132,0,0,-0.0288,-0.0276,-0.0277,-0.0257,-0.0238,-0.0232,-0.0198,-0.0187,-0.0175,-0.0119,-0.0094,-0.0054,0.0003,0.0036,0.0054,0.0065,0.0123,0.0096,0.0093,0.0094,0.0157,0.0159,0.0162,0.0132,0.0132,0.0132,0,0,-0.0322,-0.0306,-0.032,-0.0304,-0.0282,-0.0256,-0.0256,-0.022,-0.0198,-0.0171,-0.0125,-0.0082,-0.0028,0.0019,0.0049,0.0052,0.01,0.0062,0.0045,0.0104,0.0107,0.011,0.0156,0.0163,0.0066,0.0066,0.0066,0,-0.034,-0.0351,-0.0321,-0.0327,-0.0316,-0.0271,-0.0277,-0.0249,-0.0205,-0.0183,-0.0171,-0.0077,-0.0033,0.0025,0.0025,0.0046,0.0081,0.0052,0.01,0.0104,0.0108,0.0154,0.0163,0.0063,0.0064,0.0064,0.0064,0,-0.038,-0.0386,-0.0393,-0.0383,-0.0365,-0.0365,-0.0321,-0.03,-0.0268,-0.0231,-0.0177,-0.0114,-0.0053,-0.0033,-0.0003,0.0048,0.0064,0.0083,0.0106,0.0107,0.0156,0.0166,0.006,0.0061,0.0062,0.0062,0,0,-0.0427,-0.0424,-0.0426,-0.0429,-0.0395,-0.0385,-0.0362,-0.0323,-0.03,-0.025,-0.0212,-0.0142,-0.01,-0.0064,-0.0013,0.0038,0.0093,0.0066,0.007,0.0106,0.0215,0.0256,0.0271,0.012,0.0121,0.0123,0.0236,0,-0.0469,-0.0501,-0.0476,-0.049,-0.05,-0.0444,-0.0424,-0.0377,-0.0326,-0.0277,-0.0198,-0.0146,-0.0112,-0.008,-0.0024,0.0067,0.0118,0.006,0.0214,0.0218,0.0251,0.0284,0.0215,0.0313,0.0246,0.0248,0.0249,0,-0.0515,-0.0529,-0.056,-0.0544,-0.054,-0.0534,-0.0481,-0.0455,-0.0369,-0.0326,-0.0254,-0.0188,-0.0097,-0.0075,0.008,0.004,0.0118,0.0184,0.0191,0.0255,0.0279,0.0304,0.0334,0.0266,0.0265,0.0264,0.0263,0,-0.057,-0.0581,-0.0608,-0.0605,-0.058,-0.0573,-0.055,-0.0475,-0.0442,-0.0353,-0.0311,-0.0201,-0.013,-0.0024,0.0118,0.0101,0.0286,0.0285,0.0395,0.0398,0.0384,0.0384,0.0389,0.0389,0.0388,0.0388,0.0388,0,-0.0624,-0.0642,-0.064,-0.0656,-0.0673,-0.0628,-0.0616,-0.0572,-0.0494,-0.0435,-0.0342,-0.0262,-0.0113,0.0016,0.0121,0.0301,0.0297,0.0403,0.0438,0.0364,0.036,0.0354,0.0349,0.0392,0.0391,0.039,0.039,0,-0.0681,-0.0681,-0.0714,-0.0708,-0.0706,-0.0718,-0.0675,-0.0655,-0.0572,-0.0489,-0.0459,-0.0296,-0.0115,0.0037,0.0234,0.0321,0.0473,0.0532,0.043,0.0453,0.0537,0.0528,0.0662,0.0665,0.0667,0.0669,0.067,0,-0.0715,-0.0743,-0.0766,-0.079,-0.0793,-0.0796,-0.0791,-0.0713,-0.0667,-0.0492,-0.0446,-0.0257,-0.0089,0.0203,0.0368,0.0564,0.0559,0.0613,0.0574,0.0548,0.0569,0.0556,0.0544,0.0528,0.0528,0.0529,0.0529,0,-0.0779,-0.0788,-0.0815,-0.0871,-0.0886,-0.0885,-0.0856,-0.0815,-0.0682,-0.0575,-0.0374,-0.0225,0.0049,0.0265,0.0496,0.0585,0.0573,0.0626,0.0645,0.0472,0.0433,0.045,0.044,0.0531,0.053,0.053,0.053,0.053,-0.0819,-0.0859,-0.0897,-0.0939,-0.0959,-0.0936,-0.0878,-0.0803,-0.0682,-0.0472,-0.034,-0.0099,0.0069,0.0406,0.0547,0.0648,0.0659,0.0663,0.0657,0.0653,0.062,0.0587,0.0707,0.0708,0.0708,0.0709,0.0709,0,-0.0867,-0.0902,-0.0959,-0.0987,-0.0995,-0.098,-0.0886,-0.0825,-0.063,-0.0432,-0.0223,-0.0038,0.0209,0.0378,0.0554,0.0678,0.062,0.0672,0.0571,0.0569,0.0567,0.0525,0.0589,0.0589,0.059,0.059,0,0,-0.0892,-0.0955,-0.098,-0.1,-0.0992,-0.0903,-0.0805,-0.0723,-0.0566,-0.0392,-0.0189,0.0018,0.0245,0.0342,0.0463,0.0551,0.0529,0.0535,0.0615,0.0479,0.0476,0.0539,0.0471,0,0,0,0,0]}],[{"header":{"parameterUnit":"m.s-1","parameterCategory":2,"la1":30.2991,"la2":30.254,"lo1":-89.0895,"lo2":-89.0444,"dy":0.0017,"dx":0.0017,"nx":28,"ny":28,"refTime":"2024-06-05T09:00:00:Z","depth":"4","parameterNumber":2,"parameterNumberName":"U-component_of_CURRENTS"},"data":[0,0,0,0,0,0,0,0,0,0,0,0,0,0,0,0,0,0,0,0,0,0,0,0,0,0,0,0,0,0,0,0,0,0,0,0,0,0,0,0,0,0,0,0,0,0,0,0,0,0,0,0,0,0,0,0,0,0,-0.1436,-0.1437,0,-0.1493,-0.1494,-0.1495,-0.1522,-0.1522,-0.1522,-0.1522,-0.1556,-0.1557,-0.1558,0,0,0,0,0,0,0,0,0,0,0,0,0,-0.1344,-0.1346,-0.1436,-0.1437,-0.1438,-0.1493,-0.1494,-0.1495,-0.1522,-0.1522,-0.1522,-0.1523,-0.1556,-0.1557,-0.1558,0,0,0,0,0,0,0,0,0,0,0,0,0,-0.139,-0.1346,-0.1436,-0.1459,-0.1462,-0.1493,-0.1494,-0.1495,-0.1522,-0.1522,-0.1522,-0.1523,-0.1556,-0.1557,-0.1558,-0.1562,0,0,-0.1562,-0.1562,0,0,0,0,0,0,0,0,-0.1387,-0.1393,-0.1455,-0.1458,-0.1461,-0.1502,-0.1474,-0.1517,-0.1522,-0.1498,-0.1522,-0.1523,-0.1537,-0.1539,-0.1548,-0.1564,-0.1565,-0.1562,-0.1562,-0.1563,-0.1563,0,0,0,0,0,0,0,-0.1384,-0.1391,-0.1457,-0.1456,-0.1459,-0.1465,-0.1471,-0.1482,-0.1514,-0.15,-0.1502,-0.1511,-0.1538,-0.1547,-0.1549,-0.1566,-0.1562,-0.1563,-0.1564,-0.1564,-0.1631,-0.1632,0,0,0,0,0,0,-0.138,-0.1388,-0.1456,-0.1459,-0.1425,-0.1466,-0.1474,-0.1488,-0.1515,-0.152,-0.1511,-0.1512,-0.1545,-0.1548,-0.155,-0.1606,-0.1563,-0.1564,-0.1565,-0.163,-0.1632,-0.1633,0,0,0,0,0,0,-0.1378,-0.1386,-0.1453,-0.1425,-0.1435,-0.1468,-0.1483,-0.1489,-0.1519,-0.1523,-0.1528,-0.1539,-0.1545,-0.1549,-0.1582,-0.1606,-0.1565,-0.1566,-0.1629,-0.1631,-0.1632,-0.1686,0,0,0,0,0,0,-0.1375,-0.1385,-0.1405,-0.1426,-0.1436,-0.1488,-0.1483,-0.149,-0.1524,-0.1526,-0.1548,-0.155,-0.1546,-0.158,-0.1583,-0.1607,-0.1567,-0.1628,-0.163,-0.1632,-0.1683,-0.169,-0.1695,0,0,0,0,0,-0.1372,-0.1395,-0.1406,-0.1415,-0.146,-0.1489,-0.1496,-0.1518,-0.1525,-0.1545,-0.1561,-0.1551,-0.1595,-0.1583,-0.1586,-0.161,-0.1627,-0.1629,-0.1631,-0.1681,-0.1688,-0.1695,0,0,0,0,0,0,-0.1366,-0.1401,-0.1413,-0.1447,-0.1474,-0.1495,-0.1519,-0.1532,-0.1561,-0.1569,-0.1568,-0.1572,-0.1609,-0.1603,-0.1589,-0.1634,-0.1607,-0.1611,-0.1644,-0.1651,-0.1657,-0.1648,-0.1568,0,0,0,0,0,-0.1374,-0.1402,-0.1431,-0.146,-0.1476,-0.1502,-0.1522,-0.1538,-0.1561,-0.1575,-0.1591,-0.1604,-0.1618,-0.163,-0.1641,-0.1669,-0.1641,-0.1685,-0.1691,-0.1696,-0.1691,-0.1677,-0.1681,-0.1641,-0.1641,-0.164,0,0,-0.138,-0.1403,-0.142,-0.1462,-0.1485,-0.1514,-0.1515,-0.1552,-0.158,-0.1573,-0.1621,-0.163,-0.1631,-0.1662,-0.1678,-0.1663,-0.1692,-0.1699,-0.1704,-0.1695,-0.168,-0.1684,-0.1687,-0.1642,-0.1642,-0.1642,0,0,-0.1395,-0.1428,-0.1453,-0.1481,-0.1522,-0.1539,-0.1555,-0.1592,-0.1614,-0.1657,-0.1657,-0.1679,-0.1709,-0.1711,-0.1714,-0.1758,-0.1725,-0.1768,-0.1791,-0.1779,-0.1782,-0.1784,-0.1746,-0.1744,-0.177,-0.177,-0.177,0,-0.1403,-0.1439,-0.1466,-0.1497,-0.1523,-0.1552,-0.1584,-0.1612,-0.1656,-0.1673,-0.1681,-0.172,-0.1727,-0.1748,-0.1768,-0.1771,-0.1751,-0.1765,-0.1786,-0.1787,-0.1788,-0.1749,-0.1747,-0.1773,-0.1772,-0.1772,-0.1772,0,-0.1429,-0.1469,-0.1487,-0.1535,-0.1567,-0.1602,-0.1639,-0.1676,-0.1705,-0.1726,-0.1766,-0.1776,-0.1793,-0.1805,-0.1804,-0.1821,-0.1798,-0.1796,-0.1765,-0.1796,-0.1752,-0.1749,-0.1777,-0.1776,-0.1775,-0.1774,0,0,-0.141,-0.1491,-0.1499,-0.1528,-0.1593,-0.1615,-0.1668,-0.1712,-0.1738,-0.1782,-0.1807,-0.1841,-0.1845,-0.1848,-0.1849,-0.1844,-0.184,-0.1831,-0.1829,-0.1788,-0.1796,-0.1677,-0.1661,-0.1845,-0.1845,-0.1845,-0.1759,0,-0.1422,-0.1481,-0.1523,-0.158,-0.161,-0.166,-0.1703,-0.1748,-0.1782,-0.1814,-0.1829,-0.1855,-0.1862,-0.1872,-0.1872,-0.1852,-0.1834,-0.1862,-0.1776,-0.1772,-0.166,-0.1654,-0.1845,-0.1756,-0.1755,-0.1754,-0.1754,0,-0.1424,-0.1466,-0.1525,-0.1599,-0.1618,-0.1659,-0.172,-0.1763,-0.1812,-0.1839,-0.1865,-0.1876,-0.1888,-0.1884,-0.1855,-0.1876,-0.1839,-0.1814,-0.181,-0.1675,-0.1646,-0.1721,-0.1746,-0.1747,-0.1748,-0.1748,-0.1748,0,-0.1374,-0.1461,-0.1507,-0.1536,-0.1625,-0.1661,-0.1707,-0.1768,-0.1799,-0.1848,-0.1864,-0.1886,-0.1885,-0.1865,-0.1823,-0.1845,-0.1763,-0.1784,-0.1633,-0.1624,-0.1734,-0.1733,-0.1743,-0.1743,-0.1743,-0.1743,-0.1744,0,-0.1351,-0.139,-0.1492,-0.1514,-0.1568,-0.1639,-0.1692,-0.1739,-0.1797,-0.1813,-0.1869,-0.1857,-0.1882,-0.1842,-0.1812,-0.1693,-0.175,-0.162,-0.1591,-0.1758,-0.1761,-0.173,-0.173,-0.174,-0.1741,-0.1741,-0.1742,0,-0.1281,-0.1353,-0.1409,-0.1512,-0.1546,-0.158,-0.1681,-0.1707,-0.1775,-0.179,-0.1805,-0.1835,-0.1777,-0.1761,-0.1704,-0.1651,-0.1569,-0.1509,-0.1661,-0.1645,-0.1444,-0.1448,-0.1342,-0.1337,-0.1333,-0.133,-0.1327,0,-0.1248,-0.1273,-0.1388,-0.1418,-0.1468,-0.1539,-0.1581,-0.168,-0.1697,-0.1747,-0.1728,-0.1708,-0.1705,-0.1509,-0.1529,-0.1436,-0.1421,-0.1376,-0.1439,-0.1419,-0.1402,-0.1413,-0.1422,-0.132,-0.1319,-0.1318,-0.1317,0,-0.1174,-0.1228,-0.127,-0.1334,-0.1388,-0.1436,-0.1497,-0.1494,-0.1578,-0.1677,-0.1591,-0.1542,-0.1462,-0.1408,-0.1331,-0.1278,-0.1415,-0.1333,-0.1342,-0.1401,-0.1391,-0.1381,-0.1395,-0.1302,-0.1304,-0.1306,-0.1306,0,-0.1113,-0.1124,-0.1181,-0.1219,-0.1279,-0.1268,-0.1335,-0.134,-0.1368,-0.1442,-0.1406,-0.1386,-0.143,-0.1321,-0.1255,-0.1187,-0.1186,-0.1166,-0.1185,-0.1201,-0.1197,-0.1166,-0.0964,0,0,0,0,0,-0.1041,-0.1029,-0.1058,-0.1066,-0.1115,-0.1137,-0.1238,-0.1306,-0.14,-0.1301,-0.1348,-0.1268,-0.1175,-0.1173,-0.1069,-0.1188,-0.1185,-0.1065,-0.1172,-0.1221,-0.1238,-0.1248,0,0,0,0,0,0,-0.0988,-0.1009,-0.1007,-0.0914,-0.0882,-0.0906,-0.0957,-0.1036,-0.0998,-0.111,-0.1059,-0.117,-0.109,-0.1173,-0.1021,-0.1024,-0.1065,-0.1085,-0.1082,-0.1212,-0.1227,-0.124,-0.1257,0,0,0,0,0]},{"header":{"parameterUnit":"m.s-1","parameterCategory":2,"la1":30.2991,"la2":30.254,"lo1":-89.0895,"lo2":-89.0444,"dy":0.0017,"dx":0.0017,"nx":28,"ny":28,"refTime":"2024-06-05T09:00:00:Z","depth":"4","parameterNumber":3,"parameterNumberName":"V-component_of_CURRENTS"},"data":[0,0,0,0,0,0,0,0,0,0,0,0,0,0,0,0,0,0,0,0,0,0,0,0,0,0,0,0,0,0,0,0,0,0,0,0,0,0,0,0,0,0,0,0,0,0,0,0,0,0,0,0,0,0,0,0,0,0,-0.0208,-0.0207,0,-0.0162,-0.0162,-0.0161,-0.0129,-0.0129,-0.0129,-0.0129,-0.005,-0.0048,-0.0046,0,0,0,0,0,0,0,0,0,0,0,0,0,-0.0246,-0.0246,-0.0208,-0.0207,-0.0207,-0.0162,-0.0162,-0.0161,-0.0129,-0.0129,-0.0129,-0.0129,-0.0051,-0.0048,-0.0046,0,0,0,0,0,0,0,0,0,0,0,0,0,-0.0217,-0.0246,-0.0208,-0.0186,-0.0184,-0.0163,-0.0162,-0.0161,-0.0129,-0.0129,-0.0129,-0.0128,-0.0051,-0.0049,-0.0046,-0.0034,0,0,-0.0037,-0.0036,0,0,0,0,0,0,0,0,-0.0219,-0.0216,-0.019,-0.0188,-0.0185,-0.0152,-0.0146,-0.0117,-0.0129,-0.0149,-0.0129,-0.0128,-0.0082,-0.0076,-0.0068,-0.003,-0.0026,-0.0037,-0.0035,-0.0034,-0.0033,0,0,0,0,0,0,0,-0.0221,-0.0218,-0.0189,-0.0189,-0.0186,-0.0172,-0.0167,-0.0141,-0.0116,-0.0147,-0.0145,-0.0141,-0.008,-0.0071,-0.0066,-0.0025,-0.0037,-0.0034,-0.0033,-0.0031,0.004,0.004,0,0,0,0,0,0,-0.023,-0.022,-0.019,-0.0188,-0.0203,-0.0171,-0.0166,-0.0162,-0.0117,-0.0111,-0.0142,-0.014,-0.0076,-0.0069,-0.0063,-0.0041,-0.0034,-0.0031,-0.0029,0.004,0.004,0.004,0,0,0,0,0,0,-0.0231,-0.0227,-0.0192,-0.0203,-0.0198,-0.0171,-0.0166,-0.0161,-0.0154,-0.0113,-0.0106,-0.0139,-0.0075,-0.0067,-0.0041,-0.0038,-0.003,-0.0027,0.004,0.004,0.004,0.0001,0,0,0,0,0,0,-0.0232,-0.0228,-0.0231,-0.0204,-0.0198,-0.0185,-0.0167,-0.0161,-0.0152,-0.0149,-0.0109,-0.0101,-0.0074,-0.0045,-0.0038,-0.0033,-0.0025,0.0039,0.004,0.004,0.0002,-0.0001,-0.0002,0,0,0,0,0,-0.0233,-0.0238,-0.0231,-0.0228,-0.0201,-0.0185,-0.0181,-0.016,-0.0152,-0.0152,-0.0123,-0.0103,-0.0038,-0.0043,-0.0034,-0.0029,0.0039,0.004,0.004,0.0003,-0.0,-0.0002,0,0,0,0,0,0,-0.0256,-0.0235,-0.0227,-0.0225,-0.0209,-0.018,-0.018,-0.0165,-0.0142,-0.0141,-0.0102,-0.0092,-0.0069,-0.0043,-0.005,-0.0007,0.0005,0.0007,-0.0027,-0.0029,-0.0031,-0.0042,-0.0023,0,0,0,0,0,-0.0263,-0.0262,-0.0238,-0.0238,-0.0233,-0.0208,-0.02,-0.0186,-0.0162,-0.0152,-0.0123,-0.0091,-0.0061,-0.0042,-0.0015,0.0009,0.0037,0.0019,0.0017,0.0015,0.0012,0.0064,0.0066,0.0041,0.0041,0.0041,0,0,-0.0273,-0.0261,-0.0261,-0.0244,-0.0231,-0.0227,-0.0203,-0.0195,-0.0189,-0.0147,-0.0131,-0.0101,-0.0058,-0.0032,-0.0019,-0.0009,0.0035,0.0015,0.0013,0.0012,0.0064,0.0067,0.0069,0.0042,0.0042,0.0042,0,0,-0.0295,-0.0281,-0.029,-0.0279,-0.0264,-0.0246,-0.0246,-0.0221,-0.0207,-0.0188,-0.0155,-0.0121,-0.0082,-0.0044,-0.002,-0.0016,0.0017,-0.001,-0.0023,0.0027,0.003,0.0032,0.0059,0.0064,-0.0005,-0.0005,-0.0005,0,-0.0309,-0.0314,-0.029,-0.0295,-0.029,-0.0258,-0.0264,-0.0244,-0.0213,-0.0198,-0.019,-0.0119,-0.0084,-0.0039,-0.0038,-0.002,0.0003,-0.0019,0.0024,0.0027,0.0031,0.0058,0.0064,-0.0007,-0.0007,-0.0007,-0.0006,0,-0.0333,-0.0339,-0.0344,-0.0338,-0.0327,-0.0329,-0.0298,-0.0285,-0.0264,-0.0238,-0.0198,-0.0147,-0.0101,-0.0084,-0.006,-0.0018,-0.0012,0.001,0.0028,0.0031,0.0059,0.0066,-0.001,-0.0009,-0.0008,-0.0008,0,0,-0.0362,-0.0363,-0.0366,-0.0373,-0.0351,-0.0346,-0.0333,-0.0307,-0.0294,-0.0256,-0.0231,-0.0173,-0.014,-0.0111,-0.0069,-0.0025,0.0016,-0.0004,-0.0,0.0017,0.0109,0.0092,0.0098,0.0044,0.0045,0.0047,0.0115,0,-0.0393,-0.0419,-0.0403,-0.0421,-0.043,-0.0395,-0.0384,-0.0353,-0.0317,-0.0284,-0.022,-0.0183,-0.015,-0.0127,-0.0077,-0.0005,0.0035,-0.0006,0.0108,0.0111,0.0092,0.0107,0.0051,0.012,0.0122,0.0123,0.0124,0,-0.0423,-0.0437,-0.0466,-0.0466,-0.0465,-0.0468,-0.0439,-0.0423,-0.0361,-0.0331,-0.0274,-0.0222,-0.0149,-0.0126,-0.0002,-0.0031,0.003,0.0083,0.0088,0.0091,0.0108,0.0122,0.0138,0.0137,0.0136,0.0135,0.0134,0,-0.046,-0.0478,-0.0506,-0.0507,-0.0499,-0.0503,-0.0493,-0.0444,-0.0423,-0.0358,-0.033,-0.0239,-0.0186,-0.0097,0.0013,0.0008,0.0144,0.0157,0.0197,0.0196,0.0207,0.0204,0.0238,0.0238,0.0238,0.0238,0.0238,0,-0.0494,-0.0516,-0.0532,-0.0548,-0.0576,-0.0549,-0.0553,-0.0525,-0.0473,-0.0441,-0.036,-0.0307,-0.0175,-0.0079,0.0009,0.0124,0.0147,0.0194,0.0217,0.0187,0.0181,0.0212,0.0208,0.024,0.024,0.0239,0.0239,0,-0.0526,-0.0537,-0.0574,-0.059,-0.0599,-0.0618,-0.0607,-0.06,-0.0543,-0.0496,-0.0476,-0.0349,-0.0221,-0.0096,0.0061,0.012,0.0229,0.0262,0.0206,0.0226,0.0244,0.0237,0.031,0.031,0.031,0.031,0.031,0,-0.0544,-0.057,-0.0617,-0.0649,-0.0663,-0.0684,-0.0695,-0.0648,-0.0625,-0.0515,-0.049,-0.0359,-0.0266,-0.006,0.0067,0.0226,0.0247,0.0289,0.0275,0.0238,0.0254,0.0247,0.024,0.031,0.031,0.031,0.031,0,-0.0579,-0.0602,-0.0633,-0.0706,-0.074,-0.0763,-0.0767,-0.0753,-0.0675,-0.0619,-0.0487,-0.0362,-0.0217,-0.0058,0.0066,0.0181,0.0255,0.029,0.0291,0.0278,0.0239,0.0253,0.0247,0.031,0.031,0.031,0.031,0,-0.0606,-0.0641,-0.0695,-0.075,-0.0802,-0.083,-0.0824,-0.0774,-0.0733,-0.0592,-0.0547,-0.0371,-0.0253,-0.0081,0.0036,0.0144,0.0168,0.0188,0.0194,0.0196,0.014,0.0073,0.0115,0,0,0,0,0,-0.0629,-0.0672,-0.0735,-0.0796,-0.0849,-0.0875,-0.0863,-0.0837,-0.0752,-0.0666,-0.0598,-0.0455,-0.0243,-0.0143,-0.0039,0.0009,0.0159,0.0131,0.0177,0.0312,0.0312,0.0264,0,0,0,0,0,0,-0.0646,-0.0709,-0.0738,-0.0821,-0.0871,-0.0918,-0.0915,-0.0861,-0.0794,-0.0689,-0.0574,-0.0456,-0.0256,-0.031,-0.0047,-0.0009,0.0029,0.0248,0.025,0.0312,0.0312,0.0312,0.0263,0,0,0,0,0]}]]